KC0AFB Weather Reports


time (UTC)temp
F
wind
direction
speed
knots
gust
knots
rain 1hr
in
rain 24hr
in
rain mn
in
humidity
%
barometer
mb
20260509082316 41 353 2.6 2.6 0.00 0.03 0.03 88 1009.6
20260509081814 41 353 3.5 4.3 0.00 0.03 0.03 88 1009.6
20260509081311 42 24 4.3 6.1 0.00 0.03 0.03 88 1009.4
20260509080809 42 8 2.6 2.6 0.00 0.03 0.03 88 1009.5
20260509080306 42 24 2.6 2.6 0.00 0.03 0.03 88 1009.6
20260509075805 42 8 2.6 2.6 0.00 0.03 0.03 88 1009.5
20260509075305 42 14 2.6 2.6 0.00 0.03 0.03 88 1009.6
20260509074759 43 33 1.7 1.7 0.00 0.03 0.03 88 1009.3
20260509074256 43 356 1.7 1.7 0.00 0.03 0.03 88 1009.4
20260509073752 44 27 1.7 1.7 0.00 0.03 0.03 88 1009.2
20260509073249 44 7 1.7 1.7 0.00 0.03 0.03 88 1009.2
20260509072745 45 350 5.2 5.2 0.00 0.03 0.03 88 1009.0
20260509072242 45 350 6.1 7.0 0.00 0.03 0.03 88 1008.9
20260509071739 45 359 6.1 7.8 0.00 0.03 0.03 89 1008.9
20260509071236 46 337 4.3 6.1 0.00 0.03 0.03 89 1008.9
20260509070733 46 314 5.2 6.1 0.00 0.03 0.03 89 1008.6
20260509070229 46 343 4.3 5.2 0.00 0.03 0.03 90 1008.5
20260509065726 46 329 4.3 6.1 0.00 0.03 0.03 90 1008.8
20260509065222 46 19 3.5 7.0 0.00 0.03 0.03 90 1008.6
20260509064718 46 346 3.5 5.2 0.00 0.03 0.03 91 1008.3
20260509064216 45 37 2.6 4.3 0.00 0.03 0.03 91 1008.4
20260509063714 45 344 2.6 4.3 0.00 0.03 0.03 91 1008.2
20260509063209 45 7 1.7 1.7 0.00 0.03 0.03 92 1008.0
20260509062707 45 323 1.7 2.6 0.00 0.03 0.03 92 1008.2
20260509062204 45 302 1.7 1.7 0.00 0.03 0.03 92 1008.3
20260509061701 45 324 0.9 0.9 0.00 0.03 0.03 92 1008.3
20260509061158 45 347 0.0 0.9 0.00 0.03 0.03 91 1008.1
20260509060656 45 13 0.9 0.9 0.00 0.03 0.03 91 1008.1
20260509060152 45 329 0.9 1.7 0.00 0.03 0.03 91 1008.2
20260509055647 46 278 0.9 0.9 0.00 0.03 0.03 91 1008.0
20260509055144 46 212 0.9 1.7 0.00 0.03 0.03 91 1008.1
20260509054640 46 288 2.6 2.6 0.00 0.03 0.03 91 1008.3
20260509054138 46 218 2.6 2.6 0.00 0.03 0.03 91 1007.6
20260509053636 46 251 0.9 0.9 0.07 0.03 0.03 91 1008.1
20260509053133 46 245 1.7 1.7 0.07 0.03 0.03 90 1008.0
20260509052631 46 239 1.7 1.7 0.05 0.02 0.02 90 1008.5
20260509052128 46 285 1.7 1.7 0.05 0.02 0.02 90 1008.3
20260509051626 46 308 2.6 2.6 0.07 0.01 0.01 89 1009.0
20260509051123 46 306 1.7 2.6 0.07 0.01 0.01 89 1008.8
20260509050620 46 351 0.9 0.9 0.07 0.01 0.01 89 1008.9
20260509050116 46 324 1.7 2.6 0.00 0.01 0.01 88 1008.9
20260509045614 47 346 0.9 1.7 0.05 0.01 0.01 87 1008.9
20260509045111 47 3 4.3 5.2 0.05 0.01 0.01 87 1009.2
20260509044608 47 358 4.3 5.2 0.00 0.00 0.00 85 1009.0
20260509044105 47 7 3.5 4.3 0.00 0.00 0.00 83 1009.2
20260509043601 48 35 3.5 4.3 0.00 0.00 0.00 81 1008.5
20260509043057 49 15 3.5 5.2 0.00 0.00 0.00 78 1008.5
20260509042553 49 35 6.1 7.8 0.00 0.00 0.00 75 1008.2
20260509042050 49 355 6.1 6.1 0.00 0.00 0.00 74 1008.2
20260509041547 49 21 4.3 5.2 0.00 0.00 0.00 74 1008.1
20260509041044 50 31 4.3 5.2 0.00 0.00 0.00 73 1008.3
20260509040542 50 27 6.1 9.6 0.00 0.00 0.00 71 1007.9
20260509040039 50 43 6.1 7.8 0.00 0.00 0.00 70 1007.8
20260509035536 50 51 7.8 9.6 0.00 0.00 0.00 70 1007.7
20260509035032 51 52 10.4 12.2 0.00 0.00 0.00 69 1007.5
20260509034531 51 44 7.0 8.7 0.00 0.00 0.00 68 1007.7
20260509034027 51 51 9.6 11.3 0.00 0.00 0.00 67 1007.6
20260509033524 51 27 10.4 12.2 0.00 0.00 0.00 66 1007.6
20260509033021 52 30 11.3 14.8 0.00 0.00 0.00 65 1007.5
20260509032519 53 1 13.0 15.6 0.00 0.00 0.00 63 1007.6
20260509032016 54 8 9.6 13.9 0.00 0.00 0.00 64 1006.9
20260509031513 56 19 12.2 14.8 0.00 0.00 0.00 62 1006.8
20260509031010 57 359 7.8 7.8 0.00 0.00 0.00 58 1006.5
20260509030508 57 16 8.7 11.3 0.00 0.00 0.00 56 1006.4
20260509030005 57 0 7.0 11.3 0.00 0.00 0.00 55 1006.2
20260509025500 58 326 7.8 9.6 0.00 0.00 0.00 54 1006.2
20260509024950 58 346 10.4 13.0 0.00 0.00 0.00 53 1005.9
20260509024447 59 317 8.7 12.2 0.00 0.00 0.00 52 1005.8
20260509023944 59 318 8.7 11.3 0.00 0.00 0.00 52 1005.5
20260509023441 58 3 9.6 13.9 0.00 0.00 0.00 53 1005.5
20260509022938 58 334 13.0 15.6 0.00 0.00 0.00 54 1005.2
20260509022435 59 358 11.3 13.0 0.00 0.00 0.00 53 1005.2
20260509021932 60 333 13.9 17.4 0.00 0.00 0.00 52 1005.3
20260509021429 62 353 13.0 15.6 0.00 0.00 0.00 47 1005.1
20260509020926 64 302 13.0 14.8 0.00 0.00 0.00 37 1004.5
20260509020424 65 279 7.8 11.3 0.00 0.00 0.00 38 1004.5
20260509015921 62 277 7.8 9.6 0.00 0.00 0.00 39 1004.6
20260509015420 62 298 4.3 5.2 0.00 0.00 0.00 42 1004.6
20260509014915 62 295 3.5 4.3 0.00 0.00 0.00 41 1004.1
20260509014407 62 301 1.7 2.6 0.00 0.00 0.00 42 1004.3
20260509013904 62 232 3.5 5.2 0.00 0.00 0.00 41 1004.0
20260509013401 62 245 2.6 2.6 0.00 0.00 0.00 41 1004.2
20260509012856 62 251 3.5 4.3 0.00 0.00 0.00 41 1004.1
20260509012353 62 187 2.6 2.6 0.00 0.00 0.00 42 1004.3
20260509011850 62 263 1.7 1.7 0.00 0.00 0.00 42 1004.3
20260509011348 63 286 1.7 1.7 0.00 0.00 0.00 40 1004.3
20260509010846 63 278 1.7 1.7 0.00 0.00 0.00 40 1004.2
20260509010343 63 299 3.5 4.3 0.00 0.00 0.00 39 1004.4
20260509005839 63 280 2.6 2.6 0.00 0.00 0.00 40 1004.4
20260509005338 63 292 2.6 2.6 0.00 0.00 0.00 40 1004.4
20260509004838 64 242 1.7 1.7 0.00 0.00 0.00 39 1004.6
20260509004334 64 297 0.0 1.7 0.00 0.00 0.00 39 1004.7
20260509003832 65 282 3.5 5.2 0.00 0.00 0.00 37 1005.0
20260509003330 66 287 4.3 6.1 0.00 0.00 0.00 36 1004.8
20260509002826 67 297 7.0 9.6 0.00 0.00 0.00 34 1004.9
20260509002324 67 258 4.3 5.2 0.00 0.00 0.00 35 1004.8
20260509001822 67 270 9.6 14.8 0.00 0.00 0.00 34 1005.0
20260509001317 68 263 9.6 11.3 0.00 0.00 0.00 32 1004.9
20260509000815 69 302 13.9 19.1 0.00 0.00 0.00 31 1004.8
20260509000313 68 303 13.0 15.6 0.00 0.00 0.00 32 1004.9
20260508235809 68 281 7.8 9.6 0.00 0.00 0.00 33 1005.2
20260508235307 68 295 7.0 8.7 0.00 0.00 0.00 32 1005.1
20260508234803 68 278 5.2 7.0 0.00 0.00 0.00 33 1005.2
20260508234259 68 282 7.0 7.8 0.00 0.00 0.00 32 1005.2
20260508233753 68 287 5.2 7.0 0.00 0.00 0.00 33 1005.6
20260508233251 68 293 8.7 8.7 0.00 0.00 0.00 32 1005.2
20260508232748 69 302 7.8 9.6 0.00 0.00 0.00 33 1005.5
20260508232244 68 268 7.0 7.8 0.00 0.00 0.00 33 1005.1
20260508231743 68 282 4.3 6.1 0.00 0.00 0.00 33 1005.7
20260508231239 67 289 4.3 6.1 0.00 0.00 0.00 34 1005.6
20260508230736 68 275 6.1 8.7 0.00 0.00 0.00 33 1005.8
20260508230232 68 268 6.1 7.8 0.00 0.00 0.00 33 1005.7
20260508225730 69 269 9.6 12.2 0.00 0.00 0.00 31 1006.0
20260508225226 69 273 7.0 7.8 0.00 0.00 0.00 33 1005.7
20260508224724 70 295 12.2 17.4 0.00 0.00 0.00 31 1006.0
20260508224221 71 330 7.8 9.6 0.00 0.00 0.00 30 1005.9
20260508223719 71 206 7.0 7.8 0.00 0.00 0.00 31 1006.1
20260508223216 70 278 7.0 7.8 0.00 0.00 0.00 33 1006.1
20260508222713 68 253 9.6 11.3 0.00 0.00 0.00 31 1006.3
20260508222211 69 308 9.6 11.3 0.00 0.00 0.00 32 1006.5
20260508221707 69 284 7.8 8.7 0.00 0.00 0.00 31 1006.3
20260508221203 71 277 7.0 8.7 0.00 0.00 0.00 31 1006.2
20260508220659 71 289 8.7 11.3 0.00 0.00 0.00 31 1006.5
20260508220156 70 297 9.6 12.2 0.00 0.00 0.00 30 1006.6
20260508215652 69 314 11.3 15.6 0.00 0.00 0.00 31 1006.8
20260508215149 69 303 6.1 7.8 0.00 0.00 0.00 32 1006.7
20260508214646 69 294 8.7 12.2 0.00 0.00 0.00 33 1007.0
20260508214143 69 322 10.4 12.2 0.00 0.00 0.00 33 1007.1
20260508213640 70 257 9.6 11.3 0.00 0.00 0.00 32 1007.0
20260508213136 70 313 7.0 8.7 0.00 0.00 0.00 33 1007.2
20260508212633 69 305 9.6 11.3 0.00 0.00 0.00 32 1007.1
20260508212129 70 286 5.2 7.0 0.00 0.00 0.00 36 1007.2
20260508211624 69 294 8.7 11.3 0.00 0.00 0.00 34 1007.5
20260508211121 69 289 10.4 13.9 0.00 0.00 0.00 34 1007.4
20260508210618 68 312 9.6 12.2 0.00 0.00 0.00 34 1007.7
20260508210115 70 322 9.6 11.3 0.00 0.00 0.00 33 1007.6
20260508205612 70 299 9.6 12.2 0.00 0.00 0.00 34 1007.6
20260508205108 69 292 13.0 18.2 0.00 0.00 0.00 34 1007.7
20260508204604 68 258 9.6 11.3 0.00 0.00 0.00 35 1007.8
20260508204100 69 298 10.4 13.0 0.00 0.00 0.00 34 1007.9
20260508203551 68 298 11.3 13.0 0.00 0.00 0.00 34 1007.8
20260508203047 66 344 7.8 9.6 0.00 0.00 0.00 34 1008.0
20260508202544 67 325 9.6 12.2 0.00 0.00 0.00 34 1008.1
20260508202041 66 276 8.7 9.6 0.00 0.00 0.00 36 1008.0
20260508201538 66 313 7.0 7.8 0.00 0.00 0.00 36 1008.1
20260508201034 67 303 8.7 8.7 0.00 0.00 0.00 35 1008.1
20260508200532 69 288 11.3 13.0 0.00 0.00 0.00 34 1008.3
20260508200027 68 326 9.6 12.2 0.00 0.00 0.00 35 1008.2
20260508195524 67 10 7.8 8.7 0.00 0.00 0.00 35 1008.2
20260508195020 69 309 7.8 7.8 0.00 0.00 0.00 35 1008.3
20260508194518 68 268 11.3 14.8 0.00 0.00 0.00 36 1008.2
20260508194015 68 297 8.7 13.9 0.00 0.00 0.00 36 1008.4
20260508193511 67 303 9.6 14.8 0.00 0.00 0.00 35 1008.3
20260508193008 66 318 12.2 15.6 0.00 0.00 0.00 37 1008.3
20260508192504 67 292 10.4 12.2 0.00 0.00 0.00 36 1008.4
20260508192001 66 299 7.0 8.7 0.00 0.00 0.00 36 1008.5
20260508191458 66 320 5.2 7.8 0.00 0.00 0.00 39 1008.6
20260508190955 65 304 10.4 12.2 0.00 0.00 0.00 37 1008.6
20260508190452 66 5 6.1 7.8 0.00 0.00 0.00 38 1008.6
20260508185948 66 338 9.6 12.2 0.00 0.00 0.00 37 1008.6
20260508185446 66 322 14.8 17.4 0.00 0.00 0.00 35 1008.8
20260508184943 67 350 7.8 8.7 0.00 0.00 0.00 37 1008.8
20260508184441 67 313 7.0 7.8 0.00 0.00 0.00 37 1008.8
20260508183937 66 306 8.7 12.2 0.00 0.00 0.00 36 1008.8
20260508183434 66 323 7.0 11.3 0.00 0.00 0.00 38 1008.9
20260508182929 66 329 11.3 14.8 0.00 0.00 0.00 37 1008.7
20260508182426 66 290 12.2 13.9 0.00 0.00 0.00 36 1008.8
20260508181921 65 39 8.7 9.6 0.00 0.00 0.00 37 1008.9
20260508181418 66 326 13.0 15.6 0.00 0.00 0.00 36 1008.7
20260508180916 65 339 9.6 13.0 0.00 0.00 0.00 36 1008.9
20260508180412 66 3 8.7 11.3 0.00 0.00 0.00 36 1008.8
20260508175908 65 303 8.7 11.3 0.00 0.00 0.00 36 1008.9
20260508175405 66 2 16.5 20.0 0.00 0.00 0.00 34 1009.0
20260508174903 65 12 7.8 8.7 0.00 0.00 0.00 36 1009.0
20260508174400 65 344 12.2 15.6 0.00 0.00 0.00 36 1009.0
20260508173856 65 8 13.0 15.6 0.00 0.00 0.00 36 1009.0
20260508173354 65 320 13.9 20.0 0.00 0.00 0.00 36 1009.0
20260508172849 65 314 9.6 13.0 0.00 0.00 0.00 36 1009.3
20260508172347 64 294 8.7 11.3 0.00 0.00 0.00 37 1008.9
20260508171843 64 313 13.0 15.6 0.00 0.00 0.00 36 1009.0
20260508171339 64 338 7.0 8.7 0.00 0.00 0.00 36 1009.3
20260508170836 64 356 9.6 9.6 0.00 0.00 0.00 37 1009.6
20260508170335 64 293 11.3 14.8 0.00 0.00 0.00 36 1009.4
20260508165831 63 317 7.8 11.3 0.00 0.00 0.00 37 1009.5
20260508165328 63 327 9.6 13.0 0.00 0.00 0.00 37 1009.5
20260508164824 63 356 9.6 12.2 0.00 0.00 0.00 37 1009.4
20260508164321 63 291 7.8 11.3 0.00 0.00 0.00 38 1009.5
20260508163819 63 288 8.7 14.8 0.00 0.00 0.00 39 1009.3
20260508163316 63 306 8.7 11.3 0.00 0.00 0.00 39 1009.2
20260508162812 62 3 6.1 7.8 0.00 0.00 0.00 39 1009.2
20260508162309 62 298 7.0 8.7 0.00 0.00 0.00 40 1009.2
20260508161806 62 312 7.8 9.6 0.00 0.00 0.00 40 1009.0
20260508161303 62 314 6.1 6.1 0.00 0.00 0.00 40 1009.3
20260508160801 62 351 7.0 11.3 0.00 0.00 0.00 41 1009.3
20260508160259 61 314 13.9 18.2 0.00 0.00 0.00 40 1009.3
20260508155755 61 303 10.4 12.2 0.00 0.00 0.00 40 1009.2
20260508155252 60 316 7.0 8.7 0.00 0.00 0.00 42 1009.4
20260508154749 60 353 10.4 13.0 0.00 0.00 0.00 41 1008.9
20260508154247 60 307 10.4 12.2 0.00 0.00 0.00 40 1009.2
20260508153743 60 345 10.4 12.2 0.00 0.00 0.00 41 1008.9
20260508153241 60 319 7.8 8.7 0.00 0.00 0.00 42 1009.4
20260508152737 59 332 10.4 13.0 0.00 0.00 0.00 41 1009.3
20260508152233 60 292 7.8 9.6 0.00 0.00 0.00 41 1009.3
20260508151729 59 300 9.6 11.3 0.00 0.00 0.00 41 1009.3
20260508151226 58 3 9.6 11.3 0.00 0.00 0.00 40 1009.4
20260508150723 59 340 10.4 13.0 0.00 0.00 0.00 40 1009.2
20260508150219 59 348 9.6 13.9 0.00 0.00 0.00 40 1009.0
20260508145715 59 348 5.2 6.1 0.00 0.00 0.00 41 1009.3
20260508145211 58 327 7.0 8.7 0.00 0.00 0.00 42 1009.2
20260508144709 57 318 7.8 8.7 0.00 0.00 0.00 41 1009.3
20260508144207 58 285 4.3 6.1 0.00 0.00 0.00 42 1009.0
20260508143704 57 304 6.1 7.0 0.00 0.00 0.00 42 1009.2
20260508143201 57 300 7.8 8.7 0.00 0.00 0.00 41 1009.3
20260508142657 56 294 5.2 6.1 0.00 0.00 0.00 40 1009.0
20260508142154 56 310 5.2 6.1 0.00 0.00 0.00 41 1008.8
20260508141650 56 326 4.3 5.2 0.00 0.00 0.00 42 1008.9
20260508141148 54 305 2.6 2.6 0.00 0.00 0.00 45 1009.2
20260508140646 54 292 4.3 6.1 0.00 0.00 0.00 45 1009.0
20260508140142 53 265 2.6 2.6 0.00 0.00 0.00 47 1008.9
20260508135638 53 246 2.6 4.3 0.00 0.00 0.00 45 1008.7
20260508135134 52 301 5.2 6.1 0.00 0.00 0.00 44 1008.7
20260508134631 50 314 1.7 1.7 0.00 0.00 0.00 48 1008.6
20260508134128 50 298 2.6 2.6 0.00 0.00 0.00 48 1008.7
20260508133624 49 297 2.6 4.3 0.00 0.00 0.00 50 1008.6
20260508133122 48 300 3.5 5.2 0.00 0.00 0.00 49 1008.4
20260508132620 48 318 3.5 4.3 0.00 0.00 0.00 50 1008.2
20260508132116 47 296 2.6 2.6 0.00 0.00 0.00 50 1008.3
20260508131612 47 199 2.6 2.6 0.00 0.00 0.00 51 1008.0
20260508131109 47 204 1.7 2.6 0.00 0.00 0.00 53 1007.8
20260508130605 47 224 1.7 1.7 0.00 0.00 0.00 51 1008.2
20260508125557 46 133 0.0 0.0 0.00 0.00 0.00 52 1007.9
20260508125056 46 177 0.9 0.9 0.00 0.00 0.00 50 1007.8
20260508124553 45 69 0.0 0.9 0.00 0.00 0.00 50 1008.0
20260508124050 45 66 0.9 0.9 0.00 0.00 0.00 51 1007.9
20260508123549 44 42 0.9 0.9 0.00 0.00 0.00 51 1007.8
20260508123045 43 59 0.0 0.0 0.00 0.00 0.00 50 1007.6
20260508122541 42 70 0.0 0.0 0.00 0.00 0.00 50 1007.6
20260508122039 42 88 0.0 0.0 0.00 0.00 0.00 52 1007.5
20260508121537 42 69 0.0 0.0 0.00 0.00 0.00 52 1007.6
20260508121035 41 64 0.0 0.0 0.00 0.00 0.00 56 1007.6
20260508120532 41 113 0.0 0.0 0.00 0.00 0.00 56 1007.6
20260508120030 41 101 0.0 0.0 0.00 0.00 0.00 56 1007.7
20260508115527 41 88 0.0 0.0 0.00 0.00 0.00 60 1007.7
20260508115024 41 143 1.7 1.7 0.00 0.00 0.00 53 1007.6
20260508114521 41 79 0.0 0.0 0.00 0.00 0.00 57 1007.6
20260508114017 41 48 0.9 0.9 0.00 0.00 0.00 53 1007.6
20260508113515 41 22 1.7 1.7 0.00 0.00 0.00 58 1007.8
20260508113012 41 263 0.9 0.9 0.00 0.00 0.00 53 1007.7
20260508112508 41 45 0.9 0.9 0.00 0.00 0.00 51 1007.8
20260508112005 41 19 0.9 0.9 0.00 0.00 0.00 52 1008.2
20260508111502 40 63 0.0 0.9 0.00 0.00 0.00 56 1007.8
20260508110959 41 139 0.0 0.9 0.00 0.00 0.00 54 1007.8
20260508110457 42 41 0.0 0.9 0.00 0.00 0.00 50 1007.9
20260508105956 42 352 2.6 2.6 0.00 0.00 0.00 49 1007.8
20260508105453 42 33 0.0 0.0 0.00 0.00 0.00 53 1008.0
20260508104950 42 25 0.0 0.0 0.00 0.00 0.00 51 1007.9
20260508104448 42 50 0.0 0.0 0.00 0.00 0.00 50 1007.9
20260508103944 42 66 0.0 0.0 0.00 0.00 0.00 50 1007.9
20260508103442 41 62 0.9 0.9 0.00 0.00 0.00 54 1007.7
20260508102938 41 69 0.9 0.9 0.00 0.00 0.00 55 1007.7
20260508102437 41 64 0.9 0.9 0.00 0.00 0.00 54 1008.1
20260508101933 42 92 0.9 0.9 0.00 0.00 0.00 53 1007.9
20260508101431 43 92 0.0 0.0 0.00 0.00 0.00 52 1007.8
20260508100928 43 61 0.0 0.0 0.00 0.00 0.00 50 1007.9
20260508100427 42 13 2.6 2.6 0.00 0.00 0.00 49 1008.1
20260508095923 41 28 1.7 1.7 0.00 0.00 0.00 51 1008.1
20260508095421 42 356 1.7 1.7 0.00 0.00 0.00 51 1008.2
20260508094917 42 63 0.0 0.0 0.00 0.00 0.00 50 1008.1
20260508094414 42 77 0.0 0.0 0.00 0.00 0.00 54 1008.1
20260508093910 43 76 0.0 0.0 0.00 0.00 0.00 50 1008.0
20260508093408 42 76 0.0 0.0 0.00 0.00 0.00 47 1008.1
20260508092905 42 76 0.0 0.9 0.00 0.00 0.00 49 1008.2
20260508092403 42 76 0.0 0.0 0.00 0.00 0.00 49 1008.0
20260508091902 41 64 0.9 0.9 0.00 0.00 0.00 50 1007.9
20260508091358 41 58 0.9 0.9 0.00 0.00 0.00 50 1008.1
20260508090855 42 34 0.9 0.9 0.00 0.00 0.00 50 1008.1
20260508090354 44 34 0.9 0.9 0.00 0.00 0.00 46 1008.2
20260508085849 45 15 0.9 1.7 0.00 0.00 0.00 44 1008.0
20260508085346 44 58 0.9 0.9 0.00 0.00 0.00 44 1008.2
20260508084843 43 60 0.9 0.9 0.00 0.00 0.00 46 1008.1
20260508084339 41 59 1.7 1.7 0.00 0.00 0.00 50 1008.1
20260508083837 42 74 0.0 0.0 0.00 0.00 0.00 50 1008.0
20260508083335 41 68 0.9 0.9 0.00 0.00 0.00 51 1008.0
20260508082834 42 81 0.0 0.9 0.00 0.00 0.00 52 1008.3